Location: Kikino
(54.4440°N, 112.0940°W)
Time: 19:07:38
(UTC+00:00)

A-11 Canister half - Pass Details

Date: 23 May 2024
Orbit: 1525 x 1683 km, 47.3° (Epoch: 12 June)

Event Time Altitude Azimuth Distance (km) Brightness Sun altitude
Rises 04:37:26 0° 220° (SW) 4,681 11.4 -6.7°
Reaches altitude 10° 04:40:42 10° 213° (SSW) 3,714 10.8 -7.0°
Maximum altitude 04:49:04 38° 149° (SSE) 2,232 9.4 -7.8°
Drops below altitude 10° 04:57:40 10° 87° (E) 3,825 10.8 -8.5°
Sets 05:01:05 0° 80° (E) 4,836 11.4 -8.8°
